Wind_Speed
32 33 34 34 33 33 35 35 36 35 35 34 35 36 36 37 38 39 39 40 41 42 42 43 44 44 45 46 47 47 48 49 49 50 51 52 52 52 52 52 52 51 51 51
33 33 34 34 34 34 35 36 37 37 35 35 37 37 37 38 39 40 40 41 42 42 42 43 44 45 45 45 46 47 47 48 49 50 51 51 52 52 51 51 51 51 50 50
35 35 35 35 34 34 36 36 37 37 36 37 37 37 38 39 39 40 41 42 42 42 42 43 44 44 45 45 46 47 47 48 49 50 51 51 52 52 52 52 51 51 51 51
37 36 36 35 35 36 37 37 37 37 37 38 38 38 39 39 40 40 40 41 42 42 42 43 43 44 44 45 46 47 47 48 49 50 50 51 51 51 52 52 52 52 53 52
37 38 38 36 36 37 38 38 37 37 37 38 39 39 39 40 40 41 41 41 41 42 42 43 43 43 44 44 45 46 47 47 48 49 49 49 50 50 51 52 52 53 54 53
38 39 40 38 38 39 40 39 38 38 38 38 39 40 40 41 41 41 41 41 42 42 43 44 44 44 44 45 45 45 45 46 46 47 47 47 47 48 49 49 50 51 52 53
39 40 40 39 40 41 41 41 41 41 41 41 41 41 41 42 41 42 42 42 42 43 43 44 45 45 44 45 46 45 45 44 45 45 45 45 46 46 47 48 49 49 50 51
40 41 41 41 41 41 42 42 42 42 42 42 42 42 42 42 42 42 43 43 43 43 43 44 45 45 45 45 45 45 45 44 44 44 44 45 45 45 46 47 47 47 48 48
41 42 42 42 42 42 42 43 43 43 43 43 43 43 43 43 43 43 43 43 43 43 44 44 45 45 45 45 45 45 44 44 44 44 44 44 44 44 44 45 46 46 46 46
41 41 42 43 43 43 44 44 44 44 43 44 44 44 44 43 43 43 43 43 44 44 44 44 45 46 46 45 45 45 45 45 45 45 45 45 45 44 44 44 44 44 44 45
42 42 43 43 43 44 45 45 45 44 44 44 44 44 44 44 44 44 44 44 44 44 44 45 45 45 45 45 45 45 44 44 44 45 45 44 44 44 43 43 43 44 44 44
42 42 43 43 43 43 44 44 44 44 44 44 43 43 43 43 43 43 43 43 44 44 44 44 44 44 44 44 44 43 43 43 43 43 42 42 42 42 42 42 42 42 43 43
43 43 43 42 42 43 43 43 43 43 43 42 42 42 41 41 42 42 42 43 43 43 43 43 43 43 43 42 42 42 41 40 40 40 40 40 40 41 41 41 41 41 41 42
41 41 41 41 42 42 42 41 41 41 41 41 41 41 41 41 41 41 42 42 42 42 42 42 41 41 41 40 40 39 38 38 38 38 39 39 39 39 39 39 39 39 40 40
39 39 39 40 41 40 39 39 39 39 39 39 39 39 39 39 39 39 39 40 40 40 40 40 39 39 39 38 37 37 37 37 37 37 37 38 38 38 38 38 38 38 38 39
38 39 39 39 39 38 37 37 38 38 38 38 38 38 38 38 38 38 38 39 39 39 39 38 38 37 36 36 36 36 36 36 36 36 37 37 37 37 37 37 37 37 38 38
38 38 38 37 37 37 36 37 37 37 37 37 37 37 37 37 37 37 38 39 39 39 38 38 37 36 35 35 35 34 34 34 35 35 36 36 36 36 36 36 36 36 37 38
37 37 37 36 36 36 36 36 36 37 37 36 36 36 35 36 36 37 38 38 38 38 37 36 36 35 34 34 33 33 33 33 34 34 34 34 34 35 35 35 35 36 36 37
36 36 36 35 35 35 35 35 36 36 36 35 35 35 35 35 36 36 37 37 37 36 35 35 35 34 34 33 32 32 32 33 33 33 33 33 33 34 34 35 35 35 36 36
35 35 35 34 33 33 34 34 34 34 34 33 33 33 34 35 35 36 36 36 35 34 33 33 33 33 32 32 31 31 31 31 32 32 32 32 33 33 33 34 34 35 35 35
33 33 32 32 32 32 32 32 33 33 32 32 32 32 33 33 33 33 33 32 32 31 31 31 30 30 30 30 30 30 30 30 30 31 31 31 31 32 33 33 34 34 34 34
32 31 31 31 31 31 31 32 31 31 31 31 31 31 31 31 31 31 31 30 30 29 29 29 29 29 29 29 29 29 30 30 30 30 30 30 30 31 32 32 33 33 33 33
30 30 30 30 30 30 30 30 30 30 30 30 30 30 30 30 30 29 29 29 28 28 28 28 28 29 29 29 29 29 30 30 30 30 30 30 30 31 31 31 32 32 32 32
29 29 29 29 29 29 29 29 29 29 29 30 30 30 29 29 28 28 28 28 28 28 28 28 28 28 29 28 28 29 29 30 29 29 30 30 31 31 31 31 31 30 30 30
28 29 28 28 29 29 29 29 29 29 29 29 29 29 28 28 28 27 27 27 27 27 27 28 28 28 28 28 28 28 28 29 29 29 29 30 30 30 30 29 29 28 28 27
28 28 28 29 29 29 28 28 28 28 28 28 28 28 27 27 27 27 27 27 27 27 27 27 27 28 27 27 28 28 28 28 28 28 28 28 27 27 27 26 26 26 26 26
27 28 28 28 28 28 27 27 27 27 28 28 27 27 27 27 27 27 27 27 27 27 27 26 27 27 27 27 27 27 27 27 26 26 25 25 25 24 24 24 24 23 23 23
Wind_Direction
286 286 286 286 284 283 282 281 281 283 281 281 279 279 279 279 279 277 276 275 274 274 274 274 273 274 274 273 273 273 272 270 269 269 269 269 269 269 268 267 266 266 266 266
286 286 286 285 285 284 284 283 282 282 281 280 278 278 279 280 281 280 279 278 276 275 275 274 274 274 274 274 274 273 272 271 271 270 270 270 269 269 268 267 266 266 266 266
285 285 285 285 286 285 285 284 283 283 283 281 280 279 280 280 281 281 280 279 278 277 277 276 275 275 275 275 275 274 273 272 272 271 271 270 269 269 268 267 266 266 266 267
285 285 284 289 287 286 286 286 285 283 283 283 281 280 280 281 282 282 281 280 279 278 278 277 277 277 277 277 277 276 275 274 273 272 271 270 269 268 267 267 266 266 267 267
285 286 286 288 289 289 288 287 285 284 284 284 283 281 281 282 282 282 281 281 280 279 278 278 279 278 279 279 278 277 276 275 274 273 272 271 270 268 267 266 267 267 267 267
285 286 287 289 289 289 288 287 286 285 285 284 283 283 283 282 283 282 282 281 281 280 279 279 280 280 280 279 279 278 277 276 274 273 273 272 271 269 268 267 268 268 267 267
286 287 288 290 290 290 288 289 287 286 285 284 284 284 283 284 284 283 283 282 282 281 281 281 281 281 281 280 279 278 277 276 274 274 273 273 272 270 269 269 268 268 268 268
286 287 289 290 289 289 289 288 287 286 286 285 284 284 283 284 284 283 283 283 283 282 282 282 282 282 282 281 279 278 277 275 274 273 273 273 273 272 271 270 269 269 269 269
287 288 288 288 289 289 288 287 287 286 286 285 284 283 283 283 283 283 283 283 282 283 283 283 283 284 283 282 280 278 276 275 274 273 273 273 273 273 272 272 270 269 269 269
287 287 287 287 288 288 287 287 286 286 286 285 285 284 283 283 283 283 283 283 283 283 284 284 284 284 284 282 280 278 276 275 274 273 273 273 273 273 273 272 271 269 269 269
288 288 287 286 287 287 287 286 286 286 286 286 286 285 284 284 284 284 284 284 284 284 285 285 285 285 284 283 281 279 277 275 274 274 273 273 273 273 272 272 271 270 269 269
290 290 289 288 288 288 288 287 287 287 287 287 286 285 285 284 284 284 285 285 286 286 286 286 286 285 284 283 282 280 278 276 274 273 273 273 273 272 272 272 271 271 271 270
291 291 290 289 289 289 288 287 287 287 287 287 286 285 285 285 285 285 286 287 287 287 287 287 287 286 285 284 282 281 279 277 275 273 273 273 273 272 271 272 272 272 272 272
293 292 291 290 291 291 290 289 289 289 288 288 287 286 286 287 287 287 287 287 287 288 287 287 287 286 286 285 283 281 279 277 276 274 273 273 273 273 272 272 272 272 273 273
294 294 293 292 292 292 291 291 290 290 289 288 288 286 287 288 288 287 287 288 288 288 288 288 288 287 286 285 283 281 279 277 276 275 275 274 274 273 273 273 272 272 273 273
294 294 294 294 293 293 292 291 291 290 289 289 289 288 288 288 288 288 288 289 289 289 289 289 289 288 287 285 284 282 280 278 277 276 277 276 275 274 273 273 273 273 273 272
295 295 295 295 294 293 292 292 292 291 291 290 290 289 288 288 288 288 288 289 290 290 290 289 289 288 288 286 284 282 281 279 278 278 277 277 275 274 273 273 273 273 273 272
295 295 296 296 295 294 293 293 293 292 291 291 291 290 290 289 289 289 289 289 290 290 290 289 289 289 288 287 285 283 281 280 279 279 278 277 276 275 274 274 274 274 274 274
297 297 297 296 295 295 294 294 294 293 293 292 292 291 291 291 291 290 290 291 291 290 290 289 289 288 288 287 285 283 282 282 281 280 279 278 277 276 275 275 275 276 276 275
299 299 298 298 297 296 295 295 295 295 295 294 294 294 294 294 293 292 292 292 291 291 290 290 289 289 288 287 285 285 284 284 283 281 280 280 279 278 277 277 277 277 276 276
301 301 300 299 298 298 297 297 298 298 297 296 296 297 296 296 295 295 294 293 293 292 292 291 290 290 289 288 287 286 286 286 285 284 283 281 280 280 280 279 278 277 277 276
303 302 301 300 300 300 299 299 300 299 299 299 299 299 298 298 297 296 296 295 294 294 293 292 291 291 290 289 287 287 287 288 287 286 285 283 282 282 282 282 281 279 278 277
305 304 304 303 303 303 302 302 302 301 301 301 301 301 300 299 298 298 297 297 296 295 294 293 292 292 291 291 290 289 289 289 289 287 286 285 284 284 284 283 282 281 280 279
306 307 307 306 306 306 306 305 304 303 302 302 302 302 301 300 299 299 299 299 298 297 295 295 294 293 292 292 292 292 291 291 290 289 288 287 286 285 284 284 283 283 282 280
308 308 309 309 308 308 307 305 305 304 303 303 303 303 302 301 301 301 301 301 300 299 297 296 296 296 295 294 293 293 293 293 292 291 290 289 288 287 285 284 283 283 282 281
310 310 310 310 310 309 309 307 307 306 305 305 305 304 304 303 303 304 303 303 302 301 300 299 298 298 297 296 295 294 294 295 294 294 293 292 290 288 287 285 284 283 282 281
313 313 313 313 313 313 312 311 310 309 308 307 306 306 305 305 306 306 306 305 304 303 302 301 300 300 299 298 298 297 296 296 296 295 295 294 292 291 290 288 286 284 283 282
Height
5578 5576 5573 5572 5572 5570 5567 5566 5564 5564 5562 5562 5559 5557 5556 5554 5552 5551 5550 5549 5548 5547 5545 5544 5543 5542 5542 5541 5540 5539 5538 5538 5538 5538 5537 5537 5537 5537 5537 5537 5538 5539 5540 5540
5569 5567 5565 5564 5563 5561 5559 5557 5555 5553 5553 5552 5549 5547 5546 5544 5542 5540 5539 5537 5536 5534 5533 5532 5531 5530 5528 5527 5526 5525 5525 5524 5523 5523 5523 5523 5522 5522 5522 5523 5523 5524 5525 5526
5559 5558 5555 5555 5555 5552 5550 5548 5546 5543 5544 5541 5539 5537 5536 5534 5532 5530 5528 5526 5524 5522 5521 5520 5518 5517 5516 5514 5513 5512 5511 5510 5510 5509 5509 5508 5508 5508 5508 5509 5509 5510 5511 5512
5549 5548 5546 5549 5545 5542 5540 5538 5536 5533 5532 5530 5528 5526 5524 5523 5521 5519 5517 5515 5513 5511 5509 5508 5506 5505 5503 5501 5500 5498 5497 5496 5495 5494 5494 5493 5493 5493 5493 5494 5495 5495 5496 5497
5539 5536 5536 5537 5535 5532 5529 5528 5526 5523 5521 5519 5516 5515 5514 5512 5509 5507 5505 5503 5501 5499 5497 5495 5494 5492 5490 5489 5487 5485 5483 5482 5481 5480 5479 5479 5478 5478 5479 5479 5480 5480 5481 5481
5529 5526 5525 5528 5524 5520 5518 5517 5516 5512 5510 5508 5505 5504 5503 5500 5498 5496 5493 5491 5489 5487 5485 5483 5481 5479 5477 5475 5473 5472 5470 5468 5467 5466 5465 5465 5464 5464 5464 5464 5464 5465 5465 5466
5520 5515 5515 5516 5513 5510 5508 5507 5503 5500 5498 5496 5493 5492 5491 5488 5485 5483 5481 5479 5477 5474 5472 5470 5468 5466 5464 5462 5460 5458 5456 5455 5454 5452 5452 5451 5450 5450 5450 5450 5450 5450 5450 5450
5510 5506 5508 5504 5501 5499 5496 5493 5490 5488 5486 5483 5481 5479 5477 5475 5473 5470 5468 5466 5464 5462 5459 5457 5454 5452 5450 5448 5446 5444 5443 5441 5440 5439 5438 5437 5437 5436 5435 5435 5435 5435 5435 5435
5501 5500 5496 5492 5490 5487 5484 5481 5478 5476 5474 5471 5469 5466 5464 5462 5460 5458 5455 5453 5451 5449 5446 5443 5441 5439 5436 5434 5432 5430 5429 5427 5426 5425 5424 5423 5423 5422 5422 5421 5421 5421 5421 5421
5489 5487 5484 5481 5478 5475 5472 5469 5466 5464 5461 5459 5456 5454 5452 5450 5447 5445 5443 5440 5438 5436 5433 5430 5427 5424 5422 5419 5417 5416 5414 5413 5412 5411 5410 5409 5409 5408 5408 5407 5406 5406 5407 5407
5477 5476 5472 5470 5466 5463 5459 5456 5453 5451 5449 5446 5443 5441 5439 5437 5434 5432 5430 5427 5425 5422 5419 5416 5413 5410 5407 5405 5403 5401 5400 5399 5397 5397 5396 5395 5394 5394 5393 5393 5392 5392 5393 5393
5466 5464 5460 5457 5453 5450 5447 5444 5441 5439 5436 5433 5431 5428 5426 5424 5421 5419 5416 5414 5411 5408 5405 5402 5399 5396 5393 5391 5389 5387 5386 5384 5383 5382 5382 5381 5381 5380 5379 5379 5378 5378 5378 5379
5454 5451 5447 5443 5440 5437 5434 5432 5429 5426 5424 5421 5418 5416 5413 5411 5409 5406 5403 5400 5398 5395 5392 5389 5386 5383 5380 5377 5375 5373 5372 5371 5370 5369 5368 5368 5367 5367 5366 5366 5365 5364 5364 5364
5442 5438 5435 5432 5428 5425 5422 5420 5417 5414 5411 5409 5406 5403 5401 5398 5396 5393 5390 5387 5385 5382 5378 5375 5372 5369 5367 5364 5362 5360 5359 5358 5357 5356 5355 5355 5354 5353 5353 5353 5353 5352 5351 5351
5431 5427 5424 5420 5417 5414 5411 5408 5405 5403 5400 5397 5394 5391 5389 5386 5383 5380 5377 5375 5372 5369 5366 5363 5360 5357 5354 5352 5350 5348 5346 5345 5344 5344 5343 5342 5341 5341 5340 5340 5340 5340 5339 5339
5420 5416 5413 5409 5406 5403 5400 5397 5394 5391 5388 5385 5382 5379 5377 5374 5371 5368 5365 5362 5360 5357 5353 5350 5347 5345 5342 5340 5338 5336 5335 5333 5332 5332 5331 5330 5329 5329 5328 5328 5327 5327 5327 5326
5409 5406 5402 5399 5396 5392 5389 5386 5383 5380 5377 5374 5371 5368 5365 5362 5360 5357 5354 5351 5348 5344 5341 5338 5336 5333 5331 5328 5326 5325 5323 5322 5321 5320 5319 5318 5317 5316 5316 5315 5315 5315 5314 5313
5398 5395 5391 5388 5385 5382 5379 5375 5372 5369 5366 5363 5360 5357 5354 5351 5348 5345 5342 5339 5336 5333 5330 5327 5324 5322 5320 5317 5315 5314 5312 5311 5310 5309 5307 5306 5305 5305 5304 5304 5303 5302 5302 5301
5388 5385 5381 5378 5374 5371 5368 5365 5361 5358 5355 5352 5349 5346 5343 5340 5337 5334 5331 5328 5325 5322 5319 5316 5314 5311 5309 5307 5305 5303 5302 5300 5299 5298 5296 5295 5294 5293 5292 5292 5291 5290 5289 5288
5378 5375 5371 5368 5365 5361 5358 5355 5351 5348 5345 5341 5339 5336 5333 5330 5326 5323 5320 5317 5313 5311 5308 5306 5303 5301 5298 5296 5294 5293 5291 5290 5288 5287 5285 5284 5283 5282 5281 5280 5279 5278 5277 5276
5370 5366 5362 5359 5355 5352 5348 5345 5342 5338 5335 5332 5329 5326 5323 5320 5316 5313 5310 5307 5303 5300 5298 5295 5293 5291 5289 5287 5285 5283 5281 5280 5278 5276 5275 5273 5272 5271 5270 5268 5267 5266 5265 5264
5361 5357 5353 5350 5347 5343 5340 5336 5333 5329 5326 5323 5320 5317 5313 5310 5307 5303 5300 5297 5294 5291 5289 5286 5284 5282 5279 5277 5275 5274 5272 5270 5268 5266 5264 5263 5261 5260 5259 5257 5256 5254 5253 5252
5352 5348 5345 5341 5338 5335 5331 5328 5324 5321 5318 5314 5311 5308 5304 5301 5298 5295 5292 5289 5285 5283 5280 5277 5275 5272 5270 5268 5266 5264 5262 5260 5258 5256 5254 5253 5251 5249 5248 5246 5245 5243 5242 5241
5344 5341 5337 5333 5330 5326 5323 5319 5316 5313 5309 5306 5302 5299 5296 5292 5289 5286 5283 5280 5277 5274 5271 5268 5266 5263 5261 5259 5257 5255 5252 5250 5248 5246 5244 5242 5241 5239 5237 5236 5234 5233 5231 5230
5337 5333 5329 5326 5322 5318 5315 5311 5308 5304 5301 5297 5294 5290 5287 5284 5281 5278 5274 5271 5268 5265 5262 5259 5257 5254 5252 5250 5247 5245 5243 5241 5238 5236 5234 5232 5230 5228 5227 5225 5224 5223 5221 5220
5329 5326 5322 5318 5314 5311 5307 5303 5300 5296 5293 5289 5286 5282 5279 5276 5272 5269 5266 5263 5260 5257 5254 5251 5248 5245 5243 5241 5238 5236 5234 5231 5229 5227 5224 5222 5220 5219 5217 5216 5214 5213 5212 5211
5322 5319 5315 5311 5307 5303 5299 5296 5292 5288 5285 5281 5278 5274 5271 5268 5265 5261 5258 5255 5252 5248 5245 5242 5240 5237 5234 5232 5229 5227 5224 5222 5220 5218 5216 5214 5212 5210 5208 5207 5206 5204 5203 5202